Flag for Australia Weather past 2 weeks in Wagga Wagga, New South Wales, Australia

Now
57 °F

Passing clouds.


Feels Like: 56 °F
Forecast: 36 / 58 °F
Wind: 6 mph from Northeast

Location: Wagga Airport

Current Time: Jul 25, 2014 at 11:54:41 AM

Latest Report: Jul 25, 2014 at 11:00 AM


Visibility: N/A

Pressure: 30.15 "Hg

Humidity: 72%

Dew point: 48 °F

Location of Wagga WaggaLocation

Historic Weather in Wagga Wagga — Graph

°F

Wagga Wagga temperature yesterday

Maximum temperature yesterday: 55 °F (at 1:00 PM)
Minimum temperature yesterday: 45 °F (at 12:00 AM)
Average temperature yesterday: 49 °F

Past Weeks' High & Low Weather Summary

 TemperatureHumidityPressure
High57 °F (Jul 16, 2:00 PM)100% (Jul 13, 2:00 AM)30.51 "Hg (Jul 13, 2:00 AM)
Low28 °F (Jul 13, 5:00 AM)47% (Jul 17, 4:00 PM)29.83 "Hg (Jul 10, 11:00 AM)
Average45 °F82%30.15 "Hg
* Reported Jul 10 11:00 AM — Jul 25 11:00 AM, Wagga Wagga, Weather by CustomWeather, © 2014

Note: Actual official high and low records may vary slightly from our data, if they occured in-between our weather recording intervals... More about our weather records

Advertising

Wagga Wagga weather history for previous 24 hours

 ConditionsComfort  
Time TempWeatherWind HumidityBarometerVisibility
11:00 AM
Jul 25
57 °FPassing clouds.6 mph72%30.15 "HgN/A
10:00 AM54 °FPassing clouds.5 mph77%30.15 "HgN/A
9:00 AM50 °FPassing clouds.2 mph82%30.12 "HgN/A
8:00 AM39 °FLight fog.No wind100%30.12 "HgN/A
7:00 AM39 °FFog.5 mph100%30.09 "HgN/A
6:00 AM39 °FClear.5 mph100%30.07 "Hg10 mi
5:00 AM39 °FClear.6 mph100%30.07 "HgN/A
4:00 AM41 °FClear.1 mph100%30.04 "HgN/A
3:00 AM45 °FClear.No wind93%30.04 "HgN/A
2:00 AM45 °FClear.3 mph93%30.04 "HgN/A
1:00 AM50 °FClear.2 mph82%30.04 "HgN/A
12:00 AM52 °FClear.6 mph77%30.04 "HgN/A
11:00 PM
Jul 24
52 °FMostly cloudy.9 mph77%30.04 "HgN/A
10:00 PM52 °FPassing clouds.12 mph77%30.04 "HgN/A
9:00 PM50 °FPassing clouds.10 mph82%30.04 "HgN/A
8:00 PM48 °FClear.6 mph87%30.04 "HgN/A
7:00 PM50 °FMostly cloudy.9 mph82%30.01 "HgN/A
6:00 PM52 °FPassing clouds.10 mph77%29.98 "HgN/A
5:00 PM54 °FPassing clouds.10 mph77%29.98 "HgN/A
4:00 PM54 °FScattered showers. Broken clouds.10 mph77%30.01 "HgN/A
3:00 PM55 °FMostly cloudy.10 mph67%30.01 "HgN/A
2:00 PM55 °FLight rain. Partly sunny.12 mph72%30.01 "HgN/A
1:00 PM55 °FSunny.13 mph63%30.04 "Hg10 mi
12:00 PM52 °FScattered showers. Partly sunny.9 mph72%30.07 "HgN/A
11:00 AM50 °FLight rain. More clouds than sun.10 mph71%30.09 "HgN/A
Weather by CustomWeather, © 2014

See weather overviewHow to use our weather pages